Regional Weather Roundup
Issued by NWS

Home | Current Version | Previous Version | Graphics & Text | Print | Product List | Glossary Off
Versions: 1 2 3 4 5 6 7 8 9 10 11 12 13 14 15 16 17 18 19 20 21 22 23 24 25 26 27 28 29 30 31 32 33 34 35 36 37 38 39 40 41 42 43 44 45 46 47 48 49 50

000
ASUS43 KMKX 261420
RWRWI

WISCONSIN REGIONAL WEATHER ROUNDUP
NATIONAL WEATHER SERVICE MILWAUKEE/SULLIVAN WI
900 AM CDT THU APR 26 2018

NOTE: "FAIR" INDICATES FEW OR NO CLOUDS BELOW 12,000 FEET WITH NO
SIGNIFICANT WEATHER AND/OR OBSTRUCTIONS TO VISIBILITY.

WIZ001-002-006>008-014>016-023>028-261500-
NORTHWEST WISCONSIN

CITY           SKY/WX    TMP DP  RH WIND       PRES   REMARKS
SUPERIOR ARPT  FAIR      49  33  53 W9        29.81S
ASHLAND        FAIR      51  32  48 SW15      29.80F
HAYWARD        FAIR      51  33  50 SW10      29.83F
SIREN          FAIR      53  31  43 SW8       29.83S
CUMBERLAND     FAIR      46  34  61 S7        29.85F
RICE LAKE      FAIR      51  33  50 SW8       29.86F
CHETEK         FAIR      49  35  58 CALM      29.87F
LADYSMITH      FAIR      49  34  56 SW7       29.88F
EAU CLAIRE     FAIR      48  33  56 SW7       29.88F
MENOMONIE      FAIR      52  33  49 S5        29.88F
NEW RICHMOND   FAIR      50  33  50 SW12      29.86S
OSCEOLA        FAIR      51  34  52 SW9       29.88F
$$

WIZ003>005-009-010-017-018-261500-
NORTH CENTRAL WISCONSIN

CITY           SKY/WX    TMP DP  RH WIND       PRES   REMARKS
MANITOWISH WTR FAIR      46  31  55 W7        29.83F
ARBOR VITAE    FAIR      47  32  54 W6        29.84F
WOODRUFF       FAIR      47  32  54 W6        29.84F
RHINELANDER    FAIR      49  31  49 W8        29.86F
EAGLE RIVER    FAIR      46  27  47 W7        29.84F
LAND O LAKES   FAIR      47  26  43 SW3       29.84F
PHILLIPS       FAIR      47  32  55 SW8       29.85F
TOMAHAWK       FAIR      47  30  51 SW3       29.88S
MEDFORD        FAIR      46  32  60 SW5       29.88S
MERRILL        FAIR      46  32  58 CALM      29.88F
$$

WIZ029-030-035-036-043>047-261500-
CENTRAL WISCONSIN

CITY           SKY/WX    TMP DP  RH WIND       PRES   REMARKS
WAUSAU         FAIR      45  30  55 CALM      29.87F
MOSINEE        MOSUNNY   45  32  61 SW6       29.90S
MARSHFIELD     FAIR      48  33  56 SW6       29.88S
STEVENS POINT  FAIR      45  29  52 W5        29.90F
WAUPACA        FAIR      51  33  50 SW6       29.91F
WAUTOMA        FAIR      46  34  62 SW7       29.92F
WISC RAPIDS    FAIR      47  31  53 SW7       29.91F
CAMP DOUGLAS   PTSUNNY   52  30  43 CALM      29.91S
$$

WIZ011>013-019>022-031-037>040-048>050-261500-
NORTHEAST WISCONSIN

CITY           SKY/WX    TMP DP  RH WIND       PRES   REMARKS
ANTIGO         FAIR      45  30  57 W8        29.87F
SHAWANO        FAIR      48  33  55 SW5       29.89F
OCONTO         FAIR      46  35  65 W6        29.89F
STURGEON BAY   FAIR      48  35  60 SW8       29.90F
GREEN BAY      FAIR      47  38  71 SW9       29.90F
MANITOWOC      FAIR      49  34  56 SW12      29.92F
APPLETON       SUNNY     46  34  61 SW9       29.90F
CLINTONVILLE   FAIR      47  33  57 SW5       29.90F
OSHKOSH        FAIR      49  36  61 W8        29.91F
$$

WIZ032>034-041-042-053>061-261500-
SOUTHWEST WISCONSIN

CITY           SKY/WX    TMP DP  RH WIND       PRES   REMARKS
LA CROSSE      FAIR      48  37  65 S6        29.92F
SPARTA         FAIR      44  32  63 CALM      29.92F
VIROQUA        FAIR      51  35  56 W6        29.92S
BOSCOBEL       FAIR      46  36  68 CALM      29.94F
PRAIRIE DU CHI FAIR      46  33  62 CALM      29.94F
PLATTEVILLE    FAIR      47  37  68 SW8       29.95S
$$

WIZ056-057-062-063-064-067-068-261500-
SOUTH CENTRAL WISCONSIN

CITY           SKY/WX    TMP DP  RH WIND       PRES   REMARKS
REEDSBURG      FAIR      47  35  63 S3        29.92F
BARABOO/DELLS  FAIR      47  33  59 SW6       29.92F
LONE ROCK      FAIR      46  36  68 SE3       29.94F
MINERAL POINT  FAIR      46  37  71 SW7       29.94S
MADISON        PTSUNNY   48  32  53 VRB3      29.94S
MIDDLETON      FAIR      49  33  53 SW8       29.95S
WATERTOWN      FAIR      46  35  66 S3        29.94F
MONROE         FAIR      46  32  57 S13       29.94F
JANESVILLE     MOSUNNY   48  34  57 S3        29.95F
$$

WIZ051-052-058>065-066-070>072-261500-
SOUTHEAST WISCONSIN

CITY           SKY/WX    TMP DP  RH WIND       PRES   REMARKS
MILWAUKEE      PTSUNNY   49  33  54 SW5       29.95F
WAUKESHA       SUNNY     48  34  57 SW5       29.95F
MILWAUKEE/TIMM SUNNY     48  28  46 SW5       29.96F
RACINE         FAIR      49  33  54 SW6       29.97F
BURLINGTON     FAIR      48  34  58 S3        29.95F
KENOSHA        FAIR      49  33  54 S5        29.96F
FOND DU LAC    FAIR      46  33  60 SW12      29.92F
SHEBOYGAN      FAIR      50  37  61 W6        29.92F
WEST BEND      FAIR      50  32  50 SW7       29.93F
JUNEAU         FAIR      43  34  70 SW5       29.95S
$$

LSZ147-162-261500-
LAKE SUPERIOR

STATION/POSITION TIME  TEMP    WIND        PRES    WAVE
                       AIR SEA DIR/SP/G            HT/PER
                 (UTC) (F)     (DEG/KT/KT) (MB)    (FT/S)
DEVILS ISLAND    1400   41     260/ 13/ 15 1009.2R
SAXON HARBOR     1340   52     200/ 11/ 16 1008.5F
$$

LMZ867-665-643>646-261500-
LAKE MICHIGAN

STATION/POSITION TIME  TEMP    WIND        PRES    WAVE
                       AIR SEA DIR/SP/G            HT/PER
                 (UTC) (F)     (DEG/KT/KT) (MB)    (FT/S)
NORTHPORT PIER   1340   45                 1012.2F
KEWAUNEE LAKESHO 1354   47     210/  3/  5 1012.2F
SHEBOYGAN LAKESH 1400   44     190/  8/  9 1013.8F
PORT WASHINGTON  1330   43     180/  6/  7 1015.2S
MILWAUKEE LAKESH 1400   44     160/  4/  5   N/A
KENOSHA   LAKESH 1400   48                 1014.6
$$

TC  - TEMPERATURE IN CELSIUS
VSB - VISIBILITY IN STATUTE MILES
WCI - WIND CHILL INDEX
HX  - HEAT INDEX





USA.gov is the U.S. government's official web portal to all federal, state and local government web resources and services.